Photometre #383[NE_1.6] Valladolid AOT

File : 20190928_383.hum

28/09/2019,07:00:18,TEMP=9.9,BA=5.64,STAT.A=23.5,ExtBa=13.33
28/09/2019,07:03:46,TEMP=10.5,BA=5.64,STAT.A=23.5,ExtBa=13.18
28/09/2019,07:07:49,TEMP=10.8,BA=5.64,STAT.A=23.5,ExtBa=13.14
28/09/2019,07:12:38,TEMP=11.2,BA=5.64,STAT.A=23.5,ExtBa=13.14
28/09/2019,07:18:27,TEMP=11.8,BA=5.64,STAT.A=23.5,ExtBa=13.15
28/09/2019,07:25:37,TEMP=12.5,BA=5.64,STAT.A=23.5,ExtBa=13.18
28/09/2019,07:34:42,TEMP=13.3,BA=5.60,STAT.B=24.0,ExtBa=13.22
28/09/2019,07:43:22,TEMP=14.4,BA=5.60,STAT.A=23.5,ExtBa=12.89
28/09/2019,07:45:15,TEMP=14.8,BA=5.60,STAT.A=23.0,ExtBa=12.92
28/09/2019,07:49:24,TEMP=14.8,BA=5.60,STAT.A=23.5,ExtBa=13.02
28/09/2019,07:55:40,TEMP=15.3,BA=5.60,STAT.A=24.0,ExtBa=13.09
28/09/2019,08:02:51,TEMP=16.0,BA=5.64,STAT.F,ExtBa=13.11
28/09/2019,08:16:40,TEMP=17.4,BA=5.60,STAT.A=23.5,ExtBa=12.85
28/09/2019,08:21:08,TEMP=17.4,BA=5.60,STAT.A=24.0,ExtBa=13.00
28/09/2019,08:33:02,TEMP=18.2,BA=5.60,STAT.A=24.0,ExtBa=13.13
28/09/2019,08:47:43,TEMP=19.6,BA=5.60,STAT.A=24.0,ExtBa=13.18
28/09/2019,09:06:25,TEMP=21.1,BA=5.60,STAT.B=24.0,ExtBa=13.21
28/09/2019,09:15:06,TEMP=21.8,BA=5.60,STAT.F,ExtBa=12.86
28/09/2019,09:28:44,STAT.X
28/09/2019,09:40:07,TEMP=21.9,BA=5.60,STAT.D=24.5,ExtBa=13.03
28/09/2019,09:55:07,TEMP=23.4,BA=5.60,STAT.D=24.5,ExtBa=13.12
28/09/2019,10:10:08,TEMP=24.7,BA=5.60,STAT.F,ExtBa=13.14
28/09/2019,10:25:07,TEMP=25.3,BA=5.60,STAT.D=24.5,ExtBa=12.92
28/09/2019,10:40:07,TEMP=26.1,BA=5.60,STAT.D=24.5,ExtBa=13.10
28/09/2019,10:55:07,TEMP=27.0,BA=5.60,STAT.D=24.5,ExtBa=13.12
28/09/2019,11:10:09,TEMP=27.0,BA=5.60,STAT.F,ExtBa=13.14
28/09/2019,11:25:07,TEMP=26.7,BA=5.56,STAT.D=24.5,ExtBa=12.91
28/09/2019,11:40:07,TEMP=26.7,BA=5.56,STAT.D=24.5,ExtBa=13.08
28/09/2019,11:55:07,TEMP=26.8,BA=5.60,STAT.D=24.5,ExtBa=13.11
28/09/2019,12:10:09,TEMP=27.7,BA=5.56,STAT.F,ExtBa=13.13
28/09/2019,12:25:07,TEMP=28.1,BA=5.56,STAT.D=24.5,ExtBa=12.88
28/09/2019,12:40:07,TEMP=29.1,BA=5.56,STAT.D=24.5,ExtBa=13.06
28/09/2019,12:55:07,TEMP=29.4,BA=5.60,STAT.D=24.5,ExtBa=13.09
28/09/2019,13:10:09,TEMP=30.2,BA=5.56,STAT.F,ExtBa=13.11
28/09/2019,13:25:07,TEMP=30.3,BA=5.56,STAT.D=24.5,ExtBa=12.86
28/09/2019,13:40:07,TEMP=30.7,BA=5.56,STAT.D=24.5,ExtBa=13.03
28/09/2019,13:55:07,TEMP=31.2,BA=5.60,STAT.D=24.5,ExtBa=13.07
28/09/2019,14:10:09,TEMP=31.4,BA=5.56,STAT.F,ExtBa=13.08
28/09/2019,14:25:07,TEMP=31.0,BA=5.56,STAT.D=24.5,ExtBa=12.84
28/09/2019,14:40:07,TEMP=31.7,BA=5.56,STAT.D=24.5,ExtBa=13.00
28/09/2019,14:55:08,STAT.X
28/09/2019,15:10:08,TEMP=31.2,BA=5.56,STAT.F,ExtBa=12.99
28/09/2019,15:23:58,TEMP=30.6,BA=5.56,STAT.B=24.5,ExtBa=12.77
28/09/2019,15:35:01,TEMP=30.2,BA=5.56,STAT.A=24.5,ExtBa=12.84
28/09/2019,15:47:14,TEMP=30.4,BA=5.60,STAT.A=24.5,ExtBa=12.95
28/09/2019,15:59:08,TEMP=30.5,BA=5.60,STAT.A=24.5,ExtBa=12.97
28/09/2019,16:09:01,TEMP=30.4,BA=5.56,STAT.A=24.5,ExtBa=12.99
28/09/2019,16:17:24,TEMP=30.5,BA=5.56,STAT.F,ExtBa=12.98
28/09/2019,16:31:12,TEMP=30.2,BA=5.52,STAT.A=24.5,ExtBa=12.76
28/09/2019,16:33:04,TEMP=30.2,BA=5.52,STAT.A=24.0,ExtBa=12.78
28/09/2019,16:36:19,TEMP=29.8,BA=5.52,STAT.A=24.5,ExtBa=12.83
28/09/2019,16:41:11,TEMP=29.5,BA=5.60,STAT.A=24.5,ExtBa=12.87
28/09/2019,16:45:32,TEMP=29.4,BA=5.60,STAT.B=24.5,ExtBa=12.87
28/09/2019,16:54:37,TEMP=29.2,BA=5.52,STAT.A=24.5,ExtBa=12.78
28/09/2019,17:01:47,TEMP=28.9,BA=5.56,STAT.A=24.5,ExtBa=12.89
28/09/2019,17:07:36,TEMP=28.8,BA=5.56,STAT.A=24.5,ExtBa=12.89
28/09/2019,17:12:25,TEMP=28.8,BA=5.60,STAT.A=24.5,ExtBa=12.88
28/09/2019,17:16:28,TEMP=28.7,BA=5.60,STAT.A=24.5,ExtBa=12.86
28/09/2019,17:19:56,TEMP=28.6,BA=5.60,STAT.A=24.5,ExtBa=12.84